Simultaneous Nadir Overpasses (SNOs) Predictions

Prediction of SNOs between GOES-17 and METOP-B Satellite Orbit:

Table of predicted SNOs for the next 14.0 days since TLE Epoch: 8/8/2025
Index Date Time (GOES-17) GOES-17 Lat,Lon METOP-B Lat,Lon Distance(km) Time Diff (sec)
1 08/10/2025 03:06:57 0.00, -89.47 -0.26, -90.62 130.95 80
2 08/11/2025 02:43:39 0.02, -89.48 0.89, -85.65 436.27 80
3 08/12/2025 15:05:12 -0.00, -89.51 0.15, -90.24 83.24 80
4 08/13/2025 14:41:54 -0.02, -89.51 -0.94, -85.26 483.95 80
5 08/15/2025 03:03:36 -0.00, -89.49 -0.10, -89.88 45.21 80
6 08/17/2025 14:59:12 0.01, -89.52 -0.02, -89.50 4.12 80
7 08/20/2025 02:57:36 -0.02, -89.50 0.08, -89.15 41.06 80
8 08/21/2025 15:19:09 0.04, -89.55 0.94, -93.74 477.07 80
9 08/22/2025 14:55:51 0.02, -89.55 -0.16, -88.76 90.77 80
